[Date Prev][Date Next][Thread Prev][Thread Next] - [Date Index][Thread Index][Author Index]
2 Line ISS Keps 1-20
- Subject: [sarex] 2 Line ISS Keps 1-20
- From: "Dave Larsen PhD" <doc@xxxxxxxxxxx>
- Date: Sun, 20 Jan 2002 03:38:42 -0800
ISS
1 25544U 98067A 02020.45706566 .00057365 00000-0 75840-3 0 9806
2 25544 51.6407 75.5168 0007166 333.3794 155.0416 15.57747417180985
----
Via the sarex mailing list at AMSAT.ORG courtesy of AMSAT-NA.
To unsubscribe, send "unsubscribe sarex" to Majordomo@amsat.org
AMSAT Home